Simultaneous Nadir Overpasses (SNOs) Predictions

Prediction of SNOs between GOES-16 and AQUA Satellite Orbit:

Table of predicted SNOs for the next 14.0 days since TLE Epoch: 10/1/2022
Index Date Time (GOES-16) GOES-16 Lat,Lon AQUA Lat,Lon Distance(km) Time Diff (sec)
1 10/02/2022 06:41:07 0.06, -75.20 0.09, -75.38 21.05 80
2 10/04/2022 06:31:02 0.05, -75.20 -0.57, -72.27 332.61 80
3 10/04/2022 18:49:36 -0.04, -75.20 -0.53, -77.42 252.95 80
4 10/06/2022 18:39:30 -0.04, -75.22 0.16, -74.32 102.01 80
5 10/07/2022 06:57:57 0.03, -75.22 0.91, -79.44 479.27 80
6 10/08/2022 18:26:43 -0.04, -75.24 0.81, -71.21 458.27 80
7 10/09/2022 06:45:10 0.03, -75.25 0.25, -76.33 122.75 80
8 10/11/2022 06:35:03 0.04, -75.28 -0.43, -73.22 234.71 80
9 10/11/2022 18:53:37 -0.03, -75.29 -0.70, -78.36 350.05 80
10 10/13/2022 18:43:30 -0.03, -75.32 0.01, -75.26 8.75 80
